Regional Weather Roundup
Issued by NWS Boston, MA

Home | Current Version | Previous Version | Text Only | Print | Product List | Glossary On
Versions: 1 2 3 4 5 6 7 8 9 10 11 12 13 14 15 16 17 18 19 20 21 22 23 24 25 26 27 28 29 30 31 32 33 34 35 36 37 38 39 40 41 42 43 44 45 46 47 48 49 50
000
ASUS41 KBOX 291910
RWRBOX

REGIONAL WEATHER ROUNDUP
NATIONAL WEATHER SERVICE TAUNTON MA
300 PM EDT FRI MAY 29 2015

NOTE:  "FAIR" INDICATES FEW OR NO CLOUDS BELOW 12,000 FEET WITH NO
SIGNIFICANT WEATHER AND/OR OBSTRUCTIONS TO VISIBILITY.  THE FOLLOWING
OBSERVATION LOCATIONS DO NOT REPORT PRESENT WEATHER...PROVINCETOWN...
SMITHFIELD...BLOCK ISLAND...KEENE...AND OXFORD.

MAZALL-292000-
EASTERN MASSACHUSETTS

CITY           SKY/WX    TMP DP  RH WIND       PRES   REMARKS
BOSTON         MOSUNNY   67  60  78 E9        30.30S
BEVERLY        MOSUNNY   68  59  73 SE12      30.28F
LAWRENCE       CLOUDY    77  59  53 E8        30.29S
BEDFORD        PTSUNNY   75  60  59 E10       30.26F
BLUE HILL        N/A     75  58  55 E8        30.28F
NORWOOD        SUNNY     77  60  55 E7        30.26F
MARSHFIELD     CLOUDY    63  59  88 E7        30.31F
PLYMOUTH       SUNNY     71  60  68 NE9       30.28F
TAUNTON        MOSUNNY   79  60  52 N6        30.25F
NEW BEDFORD    MOSUNNY   78  59  51 SE12G17   30.26S
$$

MAZALL-292000-
CAPE COD AND THE ISLANDS

CITY           SKY/WX    TMP DP  RH WIND       PRES   REMARKS
FALMOUTH       SUNNY     75  59  57 VRB5      30.28S
HYANNIS        SUNNY     74  61  63 VRB3      30.26F
CHATHAM        SUNNY     70  58  65 E5        30.29F
PROVINCETOWN   SUNNY     64  55  72 NE9       30.30S
NANTUCKET      SUNNY     70  56  61 SE10      30.28F
MARTHAS VNYRD  SUNNY     75  58  55 S10       30.27F
$$

MAZALL-292000-
CENTRAL AND WESTERN MASSACHUSETTS

CITY           SKY/WX    TMP DP  RH WIND       PRES   REMARKS
WORCESTER      PTSUNNY   76  56  49 SE6       30.29S
FITCHBURG      PTSUNNY   78  58  49 MISG      30.27F
ORANGE         SUNNY     80  57  45 SW10      30.26S
SPRINGFIELD    MOSUNNY   81  58  45 VRB6      30.23F
WESTFIELD      MOSUNNY   82  56  40 VRB7      30.24F
NORTH ADAMS    MOSUNNY   81  57  43 N3        30.24F
PITTSFIELD     SUNNY     78  54  43 CALM      30.26S
$$

RIZALL-292000-
RHODE ISLAND

CITY           SKY/WX    TMP DP  RH WIND       PRES   REMARKS
PROVIDENCE     MOSUNNY   81  58  45 SE15      30.26S
NEWPORT        SUNNY     74  59  59 SE10      30.27F
BLOCK ISLAND   SUNNY     72  55  56 S10       30.29F
SMITHFIELD     PTSUNNY  N/A N/A N/A E5        30.26F
WESTERLY       SUNNY     72  56  57 S12       30.28F
$$

CTZALL-292000-
CONNECTICUT

CITY           SKY/WX    TMP DP  RH WIND       PRES   REMARKS
BRADLEY INTL   PTSUNNY   83  57  41 W7        30.24F
HARTFORD       SUNNY     81  56  42 SW8       30.24F
BRIDGEPORT     SUNNY     77  54  44 SE6       30.26F
DANBURY        SUNNY     80  57  45 VRB5      30.27S
GROTON         SUNNY     72  57  59 SE9       30.27S
NEW HAVEN      MOSUNNY   76  55  48 S9        30.26F
CHESTER        FAIR      77  55  47 S6        30.28S
MERIDEN        SUNNY     82  57  42 SW9       30.24F
WILLIMANTIC    MOSUNNY   82  56  40 VRB5      30.25S
OXFORD         MOSUNNY   79  59  50 VRB6      30.28F
$$

MEZ002-015-021-024-NHZ003-005-008-011-012-014-VTZ005-008-292000-
NORTHERN NEW ENGLAND

CITY           SKY/WX    TMP DP  RH WIND       PRES   REMARKS
PORTLAND ME    MOSUNNY   74  62  66 S9        30.28S
BANGOR ME      PTSUNNY   75  58  55 CALM      30.26F
CONCORD NH     SUNNY     80  57  45 SE6       30.25F
MANCHESTER NH  PTSUNNY   79  59  50 SE9       30.24F
NASHUA NH      PTSUNNY   77  59  53 VRB5      30.27F
PORTSMOUTH NH  MOSUNNY   72  59  64 SE10      30.27S
JAFFREY NH     MOSUNNY   76  57  51 VRB3      30.28F
KEENE NH       PTSUNNY   81  55  41 S6        30.26S
BURLINGTON VT  PTSUNNY   79  52  38 VRB6      30.23F
MT. WASHINGTON PTSUNNY   57  48  72 SW10        N/A
$$

NYZ052-076-292000-
EASTERN NEW YORK

CITY           SKY/WX    TMP DP  RH WIND       PRES   REMARKS
ALBANY         PTSUNNY   82  52  35 CALM      30.24F
NEW YORK CITY  MOSUNNY   80  54  40 S12       30.26R
$$

ANZALL-292000-
MARINE OBSERVATIONS

STATION/POSITION TIME  TEMP    WIND        PRES    VSBY  WAVE
                       AIR SEA DIR/SP/G                  HT/PER
                 (UTC) (F)     (DEG/KT/KT) (MB)    (MI)  (FT/S)
BOSTON BUOY      1850   58 58  110/  6/  6   N/A           1/ 8
BUZZARDS BAY     1900          170/  9/ 10   N/A
NANTUCKET SOUND  1850   59 61   80/  8/ 10   N/A           1
MASS BAY-STELLWA 1804   58 51   70/  4/  4   N/A    1 1/4  1/ 8
ISLE OF SHOALS   1900   59     140/ 10/ 11   N/A
S OF BLOCK IS    1808      60                N/A           2/ 8
$$

......................KEY.........................
  SKY/WX - SKY CONDITION/PRESENT WEATHER
  TMP    - TEMPERATURE IN FAHRENHEIT
  DWPT   - DEWPOINT IN FAHRENHEIT
  RH     - RELATIVE HUMIDITY IN PERCENT
  WIND   - DIRECTION AND SPEED IN MPH
  PRES   - MEAN SEA LEVEL PRESSURE IN INCHES OF HG
  WCI    - WIND CHILL INDEX
  VSB    - VISIBILITY IN MILES
  HX     - HEAT INDEX
  TC     - TEMPERATURE IN CELSIUS
  VRB    - VARIABLE WIND DIRECTION
  N/A    - NOT AVAILABLE



USA.gov is the U.S. government's official web portal to all federal, state and local government web resources and services.